IU7URP-13 Weather Reports


time (UTC)temp
F
wind
direction
speed
knots
gust
knots
rain 1hr
in
rain 24hr
in
rain mn
in
humidity
%
barometer
mb
20260507210018 62 0.0 0.0 0.00 0.00 0.00 99 1017.5
20260507204016 62 0.0 0.0 0.00 0.00 0.00 99 1017.4
20260507202015 62 0.0 0.0 0.00 0.00 0.00 99 1017.6
20260507200014 62 0.0 0.0 0.00 0.00 0.00 99 1017.5
20260507194013 62 0.0 0.0 0.00 0.00 0.00 99 1017.8
20260507192011 61 0.0 0.0 0.00 0.00 0.00 99 1017.6
20260507190010 62 0.0 0.0 0.00 0.00 0.00 99 1017.7
20260507184009 62 0.0 0.0 0.00 0.00 0.00 99 1017.6
20260507182007 62 0.0 0.0 0.00 0.00 0.00 99 1017.7
20260507180006 62 0.0 0.0 0.00 0.00 0.00 99 1017.3
20260507174004 63 0.0 0.0 0.00 0.00 0.00 99 1017.5
20260507172003 64 0.0 0.0 0.00 0.00 0.00 99 1017.5
20260507170002 65 0.0 0.0 0.00 0.00 0.00 99 1017.5
20260507164000 67 0.0 0.0 0.00 0.00 0.00 82 1017.2
20260507161959 68 0.0 0.0 0.00 0.00 0.00 52 1016.9
20260507155957 70 0.0 0.0 0.00 0.00 0.00 43 1016.9
20260507153956 71 0.0 0.0 0.00 0.00 0.00 31 1017.0
20260507151955 71 0.0 0.0 0.00 0.00 0.00 33 1017.3
20260507145954 72 0.0 0.0 0.00 0.00 0.00 34 1017.4
20260507143952 71 0.0 0.0 0.00 0.00 0.00 37 1017.7
20260507141951 71 0.0 0.0 0.00 0.00 0.00 41 1017.8
20260507135950 71 0.0 0.0 0.00 0.00 0.00 35 1017.8
20260507133948 72 0.0 0.0 0.00 0.00 0.00 33 1017.8
20260507131947 71 0.0 0.0 0.00 0.00 0.00 32 1018.0
20260507125946 74 0.0 0.0 0.00 0.00 0.00 28 1018.0
20260507123944 72 0.0 0.0 0.00 0.00 0.00 32 1018.2
20260507121943 71 0.0 0.0 0.00 0.00 0.00 33 1018.6
20260507115942 70 0.0 0.0 0.00 0.00 0.00 37 1018.8
20260507113940 70 0.0 0.0 0.00 0.00 0.00 61 1018.8
20260507111939 66 0.0 0.0 0.00 0.00 0.00 99 1018.5
20260507105938 67 0.0 0.0 0.00 0.00 0.00 99 1018.5
20260507103936 67 0.0 0.0 0.00 0.00 0.00 99 1019.0
20260507101935 67 0.0 0.0 0.00 0.00 0.00 83 1018.8
20260507095934 69 0.0 0.0 0.00 0.00 0.00 60 1019.1
20260507093933 67 0.0 0.0 0.00 0.00 0.00 99 1019.6
20260507091931 66 0.0 0.0 0.00 0.00 0.00 99 1020.5
20260507085930 68 0.0 0.0 0.00 0.00 0.00 99 1021.0
20260507083929 67 0.0 0.0 0.00 0.00 0.00 99 1021.2
20260507081924 66 0.0 0.0 0.00 0.00 0.00 99 1021.3
20260507075904 65 0.0 0.0 0.00 0.00 0.00 99 1020.9
20260507073855 65 0.0 0.0 0.00 0.00 0.00 99 1020.9
20260507071854 65 0.0 0.0 0.00 0.00 0.00 99 1020.9
20260507065853 64 0.0 0.0 0.00 0.00 0.00 99 1020.8
20260507063852 63 0.0 0.0 0.00 0.00 0.00 99 1021.1
20260507061850 63 0.0 0.0 0.00 0.00 0.00 99 1020.9
20260507055849 62 0.0 0.0 0.00 0.00 0.00 99 1020.6
20260507053848 61 0.0 0.0 0.00 0.00 0.00 99 1020.1
20260507051847 60 0.0 0.0 0.00 0.00 0.00 99 1019.5
20260507045845 61 0.0 0.0 0.00 0.00 0.00 99 1020.2
20260507043843 60 0.0 0.0 0.00 0.00 0.00 99 1020.2
20260507041842 61 0.0 0.0 0.00 0.00 0.00 99 1020.0
20260507035841 60 0.0 0.0 0.00 0.00 0.00 99 1019.7
20260507033840 60 0.0 0.0 0.00 0.00 0.00 99 1019.7
20260507031838 60 0.0 0.0 0.00 0.00 0.00 99 1019.8
20260507025837 61 0.0 0.0 0.00 0.00 0.00 99 1019.7
20260507023835 60 0.0 0.0 0.00 0.00 0.00 99 1019.6
20260507021834 60 0.0 0.0 0.00 0.00 0.00 99 1019.2
20260507015833 60 0.0 0.0 0.00 0.00 0.00 99 1019.1
20260507013832 60 0.0 0.0 0.00 0.00 0.00 99 1019.1
20260507011830 59 0.0 0.0 0.00 0.00 0.00 99 1019.0
20260507005829 60 0.0 0.0 0.00 0.00 0.00 99 1019.1
20260507003828 60 0.0 0.0 0.00 0.00 0.00 99 1019.2
20260507001826 60 0.0 0.0 0.00 0.00 0.00 99 1019.3
20260506235825 61 0.0 0.0 0.00 0.00 0.00 99 1019.3
20260506233824 60 0.0 0.0 0.00 0.00 0.00 99 1018.9
20260506231822 60 0.0 0.0 0.00 0.00 0.00 99 1019.1
20260506225821 60 0.0 0.0 0.00 0.00 0.00 99 1019.2
20260506223820 60 0.0 0.0 0.00 0.00 0.00 99 1019.1
20260506221818 60 0.0 0.0 0.00 0.00 0.00 99 1019.0
20260506215817 60 0.0 0.0 0.00 0.00 0.00 99 1019.0
20260506213816 60 0.0 0.0 0.00 0.00 0.00 99 1019.0
20260506211814 60 0.0 0.0 0.00 0.00 0.00 99 1018.9